Regional Weather Roundup
Issued by NWS Charleston, SC

Current Version | Previous Version | Graphics & Text | Print | Product List | Glossary On
Versions: 1 2 3 4 5 6 7 8 9 10 11 12 13 14 15 16 17 18 19 20 21 22 23 24 25 26 27 28 29 30 31 32 33 34 35 36 37 38 39 40 41 42 43 44 45 46 47 48 49 50
000
ASUS42 KCHS 250112
RWRCHS

Regional Weather Roundup
National Weather Service Charleston SC
900 PM EDT THU MAY 24 2018

NOTE: "fair" indicates few or no clouds below 12,000 feet with no
significant weather and/or obstructions to visibility.

Not all stations are quality controlled. Use data with caution,
especially dewpoint observations.

SCZ027-030-031-034>040-042>050-250200-
...Southeast South Carolina...

CITY           SKY/WX    TMP DP  RH WIND       PRES   REMARKS
N Charleston   CLOUDY    75  73  93 CALM      30.11R
Waterfront Prk   N/A     77  73  87 SE6       29.94S
Mount Pleasant FAIR      73  73 100 CALM      30.11R
Johns Island   FAIR      75  73  94 CALM      30.11R
Pinopolis        N/A     75  73  94 CALM      30.04R
Moncks Corner  FAIR      73  72  94 CALM      30.12R
Summerville    FAIR      73  72  94 CALM      30.12R
Beaufort MCAS  LGT RAIN  76  76 100 CALM      30.10R
Beaufort Arpt  LGT RAIN  73  73 100 CALM      30.10R
Hilton Head Is FAIR      75  73  94 CALM      30.11R
Walterboro     DRIZZLE   72  72 100 CALM      30.08S
Allendale      CLOUDY    73  73 100 CALM      30.09S

...Southern Midlands and Pee Dee...

CITY           SKY/WX    TMP DP  RH WIND       PRES   REMARKS
Georgetown     FAIR      72  72 100 CALM      30.14R
Kingstree      CLOUDY    72  72 100 CALM      30.14R
Orangeburg     MOCLDY    73  71  93 CALM      30.12R
Barnwell       MOCLDY    72  72 100 E3        30.10S
Aiken          FAIR      70  70 100 SE5       30.13F FOG
Manning        FAIR      68  68 100 CALM      30.13R
Columbia       LGT RAIN  75  73  93 SW3       30.11R
Sumter         MOCLDY    73  72  96 E3        30.11R
Florence       CLOUDY    72  71  97 NE5       30.15R
Myrtle Beach   LGT RAIN  73  72  94 E9        30.15R
N Myrtle Beach CLOUDY    76  72  87 E6        30.13R

$$

GAZ063-065-086>088-099>101-113>116-118-119-134>141-150-250200-
...Southeast Georgia...

CITY           SKY/WX    TMP DP  RH WIND       PRES   REMARKS
Savannah Arpt  LGT RAIN  75  71  87 SE7       30.10R
Hunter AAF     MOCLDY    75  71  88 E5        30.07R
Fort Stewart   RAIN      72  70  95 N3        30.07R
Statesboro     LGT RAIN  70  70  99 S3        30.09S
Sylvania       LGT RAIN  71  71  99 CALM      30.09F
Claxton        DRIZZLE   72  72  98 CALM      30.10R

...CSRA, Central and far Southeast Georgia...

CITY           SKY/WX    TMP DP  RH WIND       PRES   REMARKS
Thomson        LGT RAIN  70  69  97 S3        30.14S
Augusta-Bush   FAIR      71  70  96 E5        30.08S
Augusta-Daniel MOCLDY    72  71  97 SE7       30.09F
Swainsboro     RAIN      72  72 100 SE6       30.09R
Vidalia        CLOUDY    73  70  88 E6        30.09R
Eastman        CLOUDY    74  67  76 SE3       30.11R
Hazlehurst       N/A     73  70  88 SE3       30.07R
Alma           FAIR      73  71  93 E3        30.07R
Waycross       MOCLDY    73  70  91 SE5       30.08R
Jesup          LGT RAIN  72  68  88 CALM      30.09R
Baxley         CLOUDY    70  70 100 E6        30.07R
Brunswick      FAIR      77  70  78 CALM      30.10R
Saint Simons   MOCLDY    78  73  84 SE10      30.08R

$$

SCZ027-028-034-036>038-045-046-048>050-GAZ119-141-250200-
...Lake and Supplemental Coastal Observations...

STATION/POSITION TIME  TEMP    WIND        PRES    WAVE   SWELL
                       AIR SEA DIR/SP/G            HT/PER HT/PER/DIR
                 (UTC) (F)     (DEG/KT/KT) (MB)    (FT/S) (FT/S/D)
Winyah Bay       2345   77     160/  3     1020.0
Lake Murray      0020   75     150/  8/  9 1018.6S
ACE Basin NERRS  2345   75        CALM     1019.0
Fort Pulaski     0042   76 79  140/  3/  4 1019.4R
Sapelo Island    0000   77     140/  5     1018.0

$$

ANZ835-935-AMZ111-154-330-350-352-354-370-450-454-472-250200-
...C-MAN and Buoy Observations...

STATION/POSITION TIME  TEMP    WIND        PRES    WAVE   SWELL
                       AIR SEA DIR/SP/G            HT/PER HT/PER/DIR
                 (UTC) (F)     (DEG/KT/KT) (MB)    (FT/S) (FT/S/D)
Buoy 41004       0050      77  110/  6/  8 1019.4R   3/ 8   3/120/ 8
Buoy 41008       0050   77 77  120/  6/  8 1018.7R   2/ 8   2/110/ 8
Folly Beach CMAN 0000   78     150/  7/  7 1019.8R
Capers Nearshore 0008   78 78  160/  8/ 10 1020.2R
Fripp Nearshore  0008   77 79  170/  6/ 10 1018.7R


STATION/POSITION TIME  TEMP    WIND        PRES    WAVE   SWELL
                       AIR SEA DIR/SP/G            HT/PER HT/PER/DIR
                 (UTC) (F)     (DEG/KT/KT) (MB)    (FT/S) (FT/S/D)
5E St. Marys GA  0100      77                N/A     2/ 9
Frying Pan Buoy  0050   76 77   70/ 10/ 12 1020.2R   2/ 8   2/130/ 8
Buoy 41025       0050   75 78   30/ 10/ 12 1021.0R   2/ 9   2/140/ 9
Cape Lookout NC  0000           60/ 11/ 12 1020.6R
Buoy 41002       0050      79  120/  4/  6 1019.5R   3/ 8   3/130/ 8
Buoy 41010       0050   78 80  110/ 12/ 14 1019.2R   3/ 8   3/ 90/ 8
St Augustine FL  0100   78 80  140/ 10/ 12 1018.6R


$$



USA.gov is the U.S. government's official web portal to all federal, state and local government web resources and services.